iso_date,epoch_date,Year,Hour,Min,DOY,POS_DOY,Lat,Lon,BP,Ts,Ta,has_bp,has_ts,has_ta,BuoyID,Buoy_Type,Buoy_Owner,Logistics,Hemisphere
2015-02-24T10:00:28Z,1424772029,2015,10,0,55.417,55.417,70.1984,-148.4522,1014.4,-12.6,-999.0,yes,yes,no,300234062555740,IceBall,USIABP,BeaCON,North
2015-02-24T10:59:31Z,1424775571,2015,11,0,55.458,55.458,70.1988,-148.4526,1015.0,-12.5,-999.0,yes,yes,no,300234062555740,IceBall,USIABP,BeaCON,North
2015-02-24T12:00:00Z,1424779200,2015,12,0,55.5,55.5,70.1986,-148.4522,1015.4,-12.0,-999.0,yes,yes,no,300234062555740,IceBall,USIABP,BeaCON,North
2015-02-24T13:00:28Z,1424782829,2015,13,0,55.542,55.542,70.1984,-148.4522,1015.6,-11.4,-999.0,yes,yes,no,300234062555740,IceBall,USIABP,BeaCON,North
2015-02-24T13:59:31Z,1424786371,2015,14,0,55.583,55.583,70.1986,-148.4522,1016.0,-11.2,-999.0,yes,yes,no,300234062555740,IceBall,USIABP,BeaCON,North
2015-02-24T15:00:00Z,1424790000,2015,15,0,55.625,55.625,70.1986,-148.4522,1016.2,-10.7,-999.0,yes,yes,no,300234062555740,IceBall,USIABP,BeaCON,North
2015-02-24T16:00:28Z,1424793629,2015,16,0,55.667,55.667,70.1986,-148.4522,1016.6,-9.6,-999.0,yes,yes,no,300234062555740,IceBall,USIABP,BeaCON,North
2015-02-24T16:59:31Z,1424797171,2015,17,0,55.708,55.664,70.1986,-148.4522,1017.1,-8.2,-999.0,yes,yes,no,300234062555740,IceBall,USIABP,BeaCON,North
2015-02-24T18:00:00Z,1424800800,2015,18,0,55.75,55.75,70.1982,-148.4526,1017.5,3.6,-999.0,yes,yes,no,300234062555740,IceBall,USIABP,BeaCON,North
2015-02-24T19:00:28Z,1424804429,2015,19,0,55.792,55.792,70.1982,-148.4516,1018.1,2.4,-999.0,yes,yes,no,300234062555740,IceBall,USIABP,BeaCON,North
2015-02-24T19:59:31Z,1424807971,2015,20,0,55.833,55.833,70.7016,-149.4452,1020.4,5.1,-999.0,yes,yes,no,300234062555740,IceBall,USIABP,BeaCON,North
2015-02-24T21:00:00Z,1424811600,2015,21,0,55.875,55.875,70.6278,-149.497,1020.5,2.2,-999.0,yes,yes,no,300234062555740,IceBall,USIABP,BeaCON,North
2015-02-24T22:00:28Z,1424815229,2015,22,0,55.917,55.917,70.6276,-149.4976,1020.8,1.7,-999.0,yes,yes,no,300234062555740,IceBall,USIABP,BeaCON,North
2015-02-24T22:59:31Z,1424818771,2015,23,0,55.958,55.958,70.86,-149.3906,995.9,2.7,-999.0,yes,yes,no,300234062555740,IceBall,USIABP,BeaCON,North
2015-02-25T00:00:00Z,1424822400,2015,0,0,56.0,56.0,70.86,-149.3906,1020.5,-9.0,-999.0,yes,yes,no,300234062555740,IceBall,USIABP,BeaCON,North
2015-02-25T01:00:28Z,1424826029,2015,1,0,56.042,56.042,70.86,-149.3906,1020.6,-9.6,-999.0,yes,yes,no,300234062555740,IceBall,USIABP,BeaCON,North
2015-02-25T01:59:31Z,1424829571,2015,2,0,56.083,56.083,70.86,-149.3906,1020.5,-10.4,-999.0,yes,yes,no,300234062555740,IceBall,USIABP,BeaCON,North
2015-02-25T03:00:00Z,1424833200,2015,3,0,56.125,56.125,70.86,-149.3906,1020.1,-11.2,-999.0,yes,yes,no,300234062555740,IceBall,USIABP,BeaCON,North
2015-02-25T04:00:28Z,1424836829,2015,4,0,56.167,56.167,70.86,-149.3906,1020.1,-11.7,-999.0,yes,yes,no,300234062555740,IceBall,USIABP,BeaCON,North
2015-02-25T04:59:31Z,1424840371,2015,5,0,56.208,56.208,70.86,-149.3906,1020.4,-12.0,-999.0,yes,yes,no,300234062555740,IceBall,USIABP,BeaCON,North
2015-02-25T06:00:00Z,1424844000,2015,6,0,56.25,56.25,70.86,-149.3906,1020.3,-12.5,-999.0,yes,yes,no,300234062555740,IceBall,USIABP,BeaCON,North
2015-02-25T07:00:28Z,1424847629,2015,7,0,56.292,56.292,70.86,-149.3906,1020.4,-12.8,-999.0,yes,yes,no,300234062555740,IceBall,USIABP,BeaCON,North
2015-02-25T07:59:31Z,1424851171,2015,8,0,56.333,56.333,70.86,-149.3906,1020.8,-13.0,-999.0,yes,yes,no,300234062555740,IceBall,USIABP,BeaCON,North
2015-02-25T09:00:00Z,1424854800,2015,9,0,56.375,56.375,70.86,-149.3906,1020.9,-13.0,-999.0,yes,yes,no,300234062555740,IceBall,USIABP,BeaCON,North
2015-02-25T10:00:28Z,1424858429,2015,10,0,56.417,56.417,70.86,-149.3906,1021.5,-13.0,-999.0,yes,yes,no,300234062555740,IceBall,USIABP,BeaCON,North
2015-02-25T10:59:31Z,1424861971,2015,11,0,56.458,56.458,70.86,-149.3906,1022.3,-12.7,-999.0,yes,yes,no,300234062555740,IceBall,USIABP,BeaCON,North
2015-02-25T12:00:00Z,1424865600,2015,12,0,56.5,56.5,70.86,-149.3906,1022.8,-12.5,-999.0,yes,yes,no,300234062555740,IceBall,USIABP,BeaCON,North
2015-02-25T13:00:28Z,1424869229,2015,13,0,56.542,56.542,70.86,-149.3906,1023.3,-12.3,-999.0,yes,yes,no,300234062555740,IceBall,USIABP,BeaCON,North
2015-02-25T13:59:31Z,1424872771,2015,14,0,56.583,56.583,70.86,-149.3906,1023.4,-12.6,-999.0,yes,yes,no,300234062555740,IceBall,USIABP,BeaCON,North
2015-02-25T15:00:00Z,1424876400,2015,15,0,56.625,56.625,70.86,-149.3906,1023.5,-12.8,-999.0,yes,yes,no,300234062555740,IceBall,USIABP,BeaCON,North
2015-02-25T16:00:28Z,1424880029,2015,16,0,56.667,56.667,70.86,-149.3906,1023.4,-12.9,-999.0,yes,yes,no,300234062555740,IceBall,USIABP,BeaCON,North
2015-02-25T16:59:31Z,1424883571,2015,17,0,56.708,56.708,70.86,-149.3906,1023.3,-13.1,-999.0,yes,yes,no,300234062555740,IceBall,USIABP,BeaCON,North
2015-02-25T18:00:00Z,1424887200,2015,18,0,56.75,56.75,70.86,-149.3906,1022.7,-13.0,-999.0,yes,yes,no,300234062555740,IceBall,USIABP,BeaCON,North
2015-02-25T19:00:28Z,1424890829,2015,19,0,56.792,56.792,70.86,-149.3906,1022.6,-12.5,-999.0,yes,yes,no,300234062555740,IceBall,USIABP,BeaCON,North
2015-02-25T19:59:31Z,1424894371,2015,20,0,56.833,56.833,70.86,-149.3906,1022.6,-12.0,-999.0,yes,yes,no,300234062555740,IceBall,USIABP,BeaCON,North
2015-02-25T21:00:00Z,1424898000,2015,21,0,56.875,56.875,70.86,-149.3906,1022.7,-11.2,-999.0,yes,yes,no,300234062555740,IceBall,USIABP,BeaCON,North
2015-02-25T22:00:28Z,1424901629,2015,22,0,56.917,56.917,70.86,-149.3906,1022.3,-10.6,-999.0,yes,yes,no,300234062555740,IceBall,USIABP,BeaCON,North
2015-02-25T22:59:31Z,1424905171,2015,23,0,56.958,56.958,70.86,-149.3906,1022.1,-10.1,-999.0,yes,yes,no,300234062555740,IceBall,USIABP,BeaCON,North
2015-02-26T00:00:00Z,1424908800,2015,0,0,57.0,57.0,70.86,-149.3906,1021.9,-9.7,-999.0,yes,yes,no,300234062555740,IceBall,USIABP,BeaCON,North
2015-02-26T01:00:28Z,1424912429,2015,1,0,57.042,57.042,70.86,-149.3904,1021.4,-9.3,-999.0,yes,yes,no,300234062555740,IceBall,USIABP,BeaCON,North
2015-02-26T01:59:31Z,1424915971,2015,2,0,57.083,57.083,70.8622,-149.3852,1021.2,-9.0,-999.0,yes,yes,no,300234062555740,IceBall,USIABP,BeaCON,North
2015-02-26T03:00:00Z,1424919600,2015,3,0,57.125,57.125,70.8654,-149.377,1021.2,-8.8,-999.0,yes,yes,no,300234062555740,IceBall,USIABP,BeaCON,North
2015-02-26T04:00:28Z,1424923229,2015,4,0,57.167,57.167,70.868,-149.3636,1020.9,-8.7,-999.0,yes,yes,no,300234062555740,IceBall,USIABP,BeaCON,North
2015-02-26T04:59:31Z,1424926771,2015,5,0,57.208,57.208,70.8704,-149.3468,1020.5,-8.7,-999.0,yes,yes,no,300234062555740,IceBall,USIABP,BeaCON,North
2015-02-26T06:00:00Z,1424930400,2015,6,0,57.25,57.25,70.8716,-149.3262,1019.9,-8.7,-999.0,yes,yes,no,300234062555740,IceBall,USIABP,BeaCON,North
2015-02-26T07:00:28Z,1424934029,2015,7,0,57.292,57.292,70.8722,-149.3026,1019.4,-8.6,-999.0,yes,yes,no,300234062555740,IceBall,USIABP,BeaCON,North
2015-02-26T07:59:31Z,1424937571,2015,8,0,57.333,57.333,70.872,-149.2752,1019.6,-8.3,-999.0,yes,yes,no,300234062555740,IceBall,USIABP,BeaCON,North
2015-02-26T09:00:00Z,1424941200,2015,9,0,57.375,57.375,70.8712,-149.2458,1019.3,-8.2,-999.0,yes,yes,no,300234062555740,IceBall,USIABP,BeaCON,North
2015-02-26T10:00:28Z,1424944829,2015,10,0,57.417,57.417,70.8698,-149.2186,1018.9,-8.1,-999.0,yes,yes,no,300234062555740,IceBall,USIABP,BeaCON,North
2015-02-26T10:59:31Z,1424948371,2015,11,0,57.458,57.458,70.8682,-149.1948,1018.2,-8.3,-999.0,yes,yes,no,300234062555740,IceBall,USIABP,BeaCON,North
2015-02-26T12:00:00Z,1424952000,2015,12,0,57.5,57.5,70.867,-149.1732,1018.0,-8.5,-999.0,yes,yes,no,300234062555740,IceBall,USIABP,BeaCON,North
2015-02-26T13:00:28Z,1424955629,2015,13,0,57.542,57.542,70.8658,-149.1494,1017.5,-8.3,-999.0,yes,yes,no,300234062555740,IceBall,USIABP,BeaCON,North
2015-02-26T13:59:31Z,1424959171,2015,14,0,57.583,57.583,70.8638,-149.1234,1016.7,-8.2,-999.0,yes,yes,no,300234062555740,IceBall,USIABP,BeaCON,North
2015-02-26T15:00:00Z,1424962800,2015,15,0,57.625,57.625,70.862,-149.097,1016.0,-8.0,-999.0,yes,yes,no,300234062555740,IceBall,USIABP,BeaCON,North
2015-02-26T16:00:28Z,1424966429,2015,16,0,57.667,57.667,70.8616,-149.0722,1015.6,-7.9,-999.0,yes,yes,no,300234062555740,IceBall,USIABP,BeaCON,North
2015-02-26T16:59:31Z,1424969971,2015,17,0,57.708,57.708,70.8616,-149.0466,1014.9,-8.1,-999.0,yes,yes,no,300234062555740,IceBall,USIABP,BeaCON,North
2015-02-26T18:00:00Z,1424973600,2015,18,0,57.75,57.75,70.8614,-149.0174,1014.6,-8.0,-999.0,yes,yes,no,300234062555740,IceBall,USIABP,BeaCON,North
2015-02-26T19:00:28Z,1424977229,2015,19,0,57.792,57.792,70.861,-148.9852,1014.5,-7.8,-999.0,yes,yes,no,300234062555740,IceBall,USIABP,BeaCON,North
2015-02-26T19:59:31Z,1424980771,2015,20,0,57.833,57.833,70.8604,-148.9498,1014.5,-7.6,-999.0,yes,yes,no,300234062555740,IceBall,USIABP,BeaCON,North
2015-02-26T21:00:00Z,1424984400,2015,21,0,57.875,57.875,70.8604,-148.9142,1014.5,-7.5,-999.0,yes,yes,no,300234062555740,IceBall,USIABP,BeaCON,North
2015-02-26T22:00:28Z,1424988029,2015,22,0,57.917,57.917,70.859,-148.8754,1014.7,-7.1,-999.0,yes,yes,no,300234062555740,IceBall,USIABP,BeaCON,North
2015-02-26T22:59:31Z,1424991571,2015,23,0,57.958,57.958,70.8562,-148.8348,1014.8,-6.9,-999.0,yes,yes,no,300234062555740,IceBall,USIABP,BeaCON,North
2015-02-27T00:00:00Z,1424995200,2015,0,0,58.0,58.0,70.8516,-148.793,1014.9,-6.7,-999.0,yes,yes,no,300234062555740,IceBall,USIABP,BeaCON,North
2015-02-27T01:00:28Z,1424998829,2015,1,0,58.042,58.042,70.8468,-148.7562,1015.1,-6.7,-999.0,yes,yes,no,300234062555740,IceBall,USIABP,BeaCON,North
2015-02-27T01:59:31Z,1425002371,2015,2,0,58.083,58.083,70.8428,-148.7276,1015.0,-6.6,-999.0,yes,yes,no,300234062555740,IceBall,USIABP,BeaCON,North
2015-02-27T03:00:00Z,1425006000,2015,3,0,58.125,58.125,70.8386,-148.7044,1014.8,-6.5,-999.0,yes,yes,no,300234062555740,IceBall,USIABP,BeaCON,North
2015-02-27T04:00:28Z,1425009629,2015,4,0,58.167,58.167,70.8338,-148.6836,1014.5,-6.5,-999.0,yes,yes,no,300234062555740,IceBall,USIABP,BeaCON,North
2015-02-27T04:59:31Z,1425013171,2015,5,0,58.208,58.208,70.829,-148.6664,1014.2,-6.4,-999.0,yes,yes,no,300234062555740,IceBall,USIABP,BeaCON,North
2015-02-27T06:00:00Z,1425016800,2015,6,0,58.25,58.25,70.8246,-148.6526,1014.0,-6.4,-999.0,yes,yes,no,300234062555740,IceBall,USIABP,BeaCON,North
2015-02-27T07:00:28Z,1425020429,2015,7,0,58.292,58.292,70.8216,-148.6418,1013.5,-6.3,-999.0,yes,yes,no,300234062555740,IceBall,USIABP,BeaCON,North
2015-02-27T07:59:31Z,1425023971,2015,8,0,58.333,58.333,70.8192,-148.6314,1013.5,-6.3,-999.0,yes,yes,no,300234062555740,IceBall,USIABP,BeaCON,North
2015-02-27T09:00:00Z,1425027600,2015,9,0,58.375,58.375,70.8176,-148.62,1013.1,-6.2,-999.0,yes,yes,no,300234062555740,IceBall,USIABP,BeaCON,North
2015-02-27T10:00:28Z,1425031229,2015,10,0,58.417,58.417,70.8164,-148.6054,1012.9,-6.0,-999.0,yes,yes,no,300234062555740,IceBall,USIABP,BeaCON,North
2015-02-27T10:59:31Z,1425034771,2015,11,0,58.458,58.458,70.815,-148.5878,1012.8,-5.9,-999.0,yes,yes,no,300234062555740,IceBall,USIABP,BeaCON,North
2015-02-27T12:00:00Z,1425038400,2015,12,0,58.5,58.5,70.8134,-148.568,1012.5,-5.9,-999.0,yes,yes,no,300234062555740,IceBall,USIABP,BeaCON,North
2015-02-27T13:00:28Z,1425042029,2015,13,0,58.542,58.542,70.812,-148.546,1012.4,-5.7,-999.0,yes,yes,no,300234062555740,IceBall,USIABP,BeaCON,North
2015-02-27T13:59:31Z,1425045571,2015,14,0,58.583,58.583,70.81,-148.5212,1012.5,-5.6,-999.0,yes,yes,no,300234062555740,IceBall,USIABP,BeaCON,North
2015-02-27T15:00:00Z,1425049200,2015,15,0,58.625,58.625,70.806,-148.4928,1013.2,-5.6,-999.0,yes,yes,no,300234062555740,IceBall,USIABP,BeaCON,North
2015-02-27T16:00:28Z,1425052829,2015,16,0,58.667,58.667,70.8002,-148.4638,1014.1,-5.7,-999.0,yes,yes,no,300234062555740,IceBall,USIABP,BeaCON,North
2015-02-27T16:59:31Z,1425056371,2015,17,0,58.708,58.708,70.7936,-148.4342,1015.0,-5.7,-999.0,yes,yes,no,300234062555740,IceBall,USIABP,BeaCON,North
2015-02-27T18:00:00Z,1425060000,2015,18,0,58.75,58.75,70.7862,-148.4048,1016.1,-5.9,-999.0,yes,yes,no,300234062555740,IceBall,USIABP,BeaCON,North
2015-02-27T19:00:28Z,1425063629,2015,19,0,58.792,58.792,70.7782,-148.378,1017.4,-6.3,-999.0,yes,yes,no,300234062555740,IceBall,USIABP,BeaCON,North
2015-02-27T19:59:31Z,1425067171,2015,20,0,58.833,58.833,70.7706,-148.3526,1018.7,-6.5,-999.0,yes,yes,no,300234062555740,IceBall,USIABP,BeaCON,North
2015-02-27T21:00:00Z,1425070800,2015,21,0,58.875,58.875,70.7632,-148.3272,1019.7,-6.8,-999.0,yes,yes,no,300234062555740,IceBall,USIABP,BeaCON,North
2015-02-27T22:00:28Z,1425074429,2015,22,0,58.917,58.917,70.756,-148.3018,1020.7,-7.1,-999.0,yes,yes,no,300234062555740,IceBall,USIABP,BeaCON,North
2015-02-27T22:59:31Z,1425077971,2015,23,0,58.958,58.958,70.749,-148.2758,1021.3,-7.3,-999.0,yes,yes,no,300234062555740,IceBall,USIABP,BeaCON,North
2015-02-28T00:00:00Z,1425081600,2015,0,0,59.0,59.0,70.7422,-148.249,1022.3,-7.6,-999.0,yes,yes,no,300234062555740,IceBall,USIABP,BeaCON,North
2015-02-28T01:00:28Z,1425085229,2015,1,0,59.042,59.042,70.7348,-148.2232,1022.6,-7.8,-999.0,yes,yes,no,300234062555740,IceBall,USIABP,BeaCON,North
2015-02-28T01:59:31Z,1425088771,2015,2,0,59.083,59.083,70.7274,-148.2,1022.9,-8.0,-999.0,yes,yes,no,300234062555740,IceBall,USIABP,BeaCON,North
2015-02-28T03:00:00Z,1425092400,2015,3,0,59.125,59.125,70.7204,-148.1796,1022.9,-8.3,-999.0,yes,yes,no,300234062555740,IceBall,USIABP,BeaCON,North
2015-02-28T04:00:28Z,1425096029,2015,4,0,59.167,59.167,70.7138,-148.1622,1022.5,-8.6,-999.0,yes,yes,no,300234062555740,IceBall,USIABP,BeaCON,North
2015-02-28T04:59:31Z,1425099571,2015,5,0,59.208,59.208,70.708,-148.1492,1021.8,-9.1,-999.0,yes,yes,no,300234062555740,IceBall,USIABP,BeaCON,North
2015-02-28T06:00:00Z,1425103200,2015,6,0,59.25,59.25,70.703,-148.1384,1021.2,-9.4,-999.0,yes,yes,no,300234062555740,IceBall,USIABP,BeaCON,North
2015-02-28T07:00:28Z,1425106829,2015,7,0,59.292,59.292,70.6986,-148.1292,1020.2,-9.8,-999.0,yes,yes,no,300234062555740,IceBall,USIABP,BeaCON,North
2015-02-28T07:59:31Z,1425110371,2015,8,0,59.333,59.333,70.695,-148.1226,1018.9,-10.1,-999.0,yes,yes,no,300234062555740,IceBall,USIABP,BeaCON,North
2015-02-28T09:00:00Z,1425114000,2015,9,0,59.375,59.375,70.6918,-148.1184,1017.4,-10.1,-999.0,yes,yes,no,300234062555740,IceBall,USIABP,BeaCON,North
2015-02-28T10:00:28Z,1425117629,2015,10,0,59.417,59.417,70.6898,-148.1178,1016.2,-10.1,-999.0,yes,yes,no,300234062555740,IceBall,USIABP,BeaCON,North
2015-02-28T10:59:31Z,1425121171,2015,11,0,59.458,59.458,70.6888,-148.1192,1015.0,-10.1,-999.0,yes,yes,no,300234062555740,IceBall,USIABP,BeaCON,North
2015-02-28T12:00:00Z,1425124800,2015,12,0,59.5,59.5,70.6884,-148.1214,1014.1,-10.0,-999.0,yes,yes,no,300234062555740,IceBall,USIABP,BeaCON,North
2015-02-28T13:00:28Z,1425128429,2015,13,0,59.542,59.542,70.6886,-148.1256,1012.8,-9.8,-999.0,yes,yes,no,300234062555740,IceBall,USIABP,BeaCON,North
2015-02-28T13:59:31Z,1425131971,2015,14,0,59.583,59.583,70.689,-148.1322,1011.9,-9.7,-999.0,yes,yes,no,300234062555740,IceBall,USIABP,BeaCON,North
2015-02-28T15:00:00Z,1425135600,2015,15,0,59.625,59.625,70.6902,-148.1396,1011.4,-9.4,-999.0,yes,yes,no,300234062555740,IceBall,USIABP,BeaCON,North
2015-02-28T16:00:28Z,1425139229,2015,16,0,59.667,59.667,70.6916,-148.1466,1010.6,-9.2,-999.0,yes,yes,no,300234062555740,IceBall,USIABP,BeaCON,North
2015-02-28T16:59:31Z,1425142771,2015,17,0,59.708,59.708,70.6926,-148.1544,1009.5,-9.1,-999.0,yes,yes,no,300234062555740,IceBall,USIABP,BeaCON,North
2015-02-28T18:00:00Z,1425146400,2015,18,0,59.75,59.75,70.6936,-148.1638,1008.2,-8.9,-999.0,yes,yes,no,300234062555740,IceBall,USIABP,BeaCON,North
2015-02-28T19:00:28Z,1425150029,2015,19,0,59.792,59.792,70.695,-148.1744,1007.4,-8.8,-999.0,yes,yes,no,300234062555740,IceBall,USIABP,BeaCON,North
2015-02-28T19:59:31Z,1425153571,2015,20,0,59.833,59.833,70.6972,-148.1848,1006.8,-8.7,-999.0,yes,yes,no,300234062555740,IceBall,USIABP,BeaCON,North
2015-02-28T21:00:00Z,1425157200,2015,21,0,59.875,59.875,70.6996,-148.195,1005.5,-8.5,-999.0,yes,yes,no,300234062555740,IceBall,USIABP,BeaCON,North
2015-02-28T22:00:28Z,1425160829,2015,22,0,59.917,59.917,70.7022,-148.2058,1004.5,-8.2,-999.0,yes,yes,no,300234062555740,IceBall,USIABP,BeaCON,North
2015-02-28T22:59:31Z,1425164371,2015,23,0,59.958,59.958,70.705,-148.2154,1003.4,-8.0,-999.0,yes,yes,no,300234062555740,IceBall,USIABP,BeaCON,North
2015-03-01T00:00:00Z,1425168000,2015,0,0,60.0,60.0,70.7078,-148.2244,1002.5,-7.8,-999.0,yes,yes,no,300234062555740,IceBall,USIABP,BeaCON,North
2015-03-01T01:00:28Z,1425171629,2015,1,0,60.042,60.042,70.7108,-148.232,1002.2,-7.6,-999.0,yes,yes,no,300234062555740,IceBall,USIABP,BeaCON,North
2015-03-01T01:59:31Z,1425175171,2015,2,0,60.083,60.083,70.714,-148.234,1001.8,-7.4,-999.0,yes,yes,no,300234062555740,IceBall,USIABP,BeaCON,North
2015-03-01T03:00:00Z,1425178800,2015,3,0,60.125,60.125,70.7172,-148.2242,1002.6,-7.2,-999.0,yes,yes,no,300234062555740,IceBall,USIABP,BeaCON,North
2015-03-01T04:00:28Z,1425182429,2015,4,0,60.167,60.167,70.7194,-148.1974,1004.1,-7.5,-999.0,yes,yes,no,300234062555740,IceBall,USIABP,BeaCON,North
2015-03-01T04:59:31Z,1425185971,2015,5,0,60.208,60.208,70.719,-148.1576,1005.1,-7.9,-999.0,yes,yes,no,300234062555740,IceBall,USIABP,BeaCON,North
2015-03-01T06:00:00Z,1425189600,2015,6,0,60.25,60.25,70.7118,-148.103,1009.7,-8.2,-999.0,yes,yes,no,300234062555740,IceBall,USIABP,BeaCON,North
2015-03-01T07:00:28Z,1425193229,2015,7,0,60.292,60.292,70.7002,-148.0426,1015.1,-8.6,-999.0,yes,yes,no,300234062555740,IceBall,USIABP,BeaCON,North
2015-03-01T07:59:31Z,1425196771,2015,8,0,60.333,60.333,70.6868,-147.9798,1019.9,-9.2,-999.0,yes,yes,no,300234062555740,IceBall,USIABP,BeaCON,North
2015-03-01T09:00:00Z,1425200400,2015,9,0,60.375,60.375,70.6732,-147.9162,1023.3,-9.8,-999.0,yes,yes,no,300234062555740,IceBall,USIABP,BeaCON,North
2015-03-01T10:00:28Z,1425204029,2015,10,0,60.417,60.417,70.6608,-147.8524,1025.8,-10.5,-999.0,yes,yes,no,300234062555740,IceBall,USIABP,BeaCON,North
2015-03-01T10:59:31Z,1425207571,2015,11,0,60.458,60.458,70.6482,-147.7912,1028.3,-11.1,-999.0,yes,yes,no,300234062555740,IceBall,USIABP,BeaCON,North
2015-03-01T12:00:00Z,1425211200,2015,12,0,60.5,60.5,70.6364,-147.7334,1030.4,-11.5,-999.0,yes,yes,no,300234062555740,IceBall,USIABP,BeaCON,North
2015-03-01T13:00:28Z,1425214829,2015,13,0,60.542,60.542,70.626,-147.6758,1031.8,-12.1,-999.0,yes,yes,no,300234062555740,IceBall,USIABP,BeaCON,North
2015-03-01T13:59:31Z,1425218371,2015,14,0,60.583,60.583,70.6158,-147.618,1033.3,-12.5,-999.0,yes,yes,no,300234062555740,IceBall,USIABP,BeaCON,North
2015-03-01T15:00:00Z,1425222000,2015,15,0,60.625,60.625,70.6062,-147.5598,1034.2,-12.9,-999.0,yes,yes,no,300234062555740,IceBall,USIABP,BeaCON,North
2015-03-01T16:00:28Z,1425225629,2015,16,0,60.667,60.667,70.5968,-147.499,1035.9,-13.3,-999.0,yes,yes,no,300234062555740,IceBall,USIABP,BeaCON,North
2015-03-01T16:59:31Z,1425229171,2015,17,0,60.708,60.708,70.5874,-147.4376,1036.8,-13.5,-999.0,yes,yes,no,300234062555740,IceBall,USIABP,BeaCON,North
2015-03-01T18:00:00Z,1425232800,2015,18,0,60.75,60.75,70.578,-147.3754,1037.8,-13.8,-999.0,yes,yes,no,300234062555740,IceBall,USIABP,BeaCON,North
2015-03-01T19:00:28Z,1425236429,2015,19,0,60.792,60.792,70.5684,-147.3138,1039.4,-14.1,-999.0,yes,yes,no,300234062555740,IceBall,USIABP,BeaCON,North
2015-03-01T19:59:31Z,1425239971,2015,20,0,60.833,60.833,70.5588,-147.2546,1040.0,-14.2,-999.0,yes,yes,no,300234062555740,IceBall,USIABP,BeaCON,North
2015-03-01T21:00:00Z,1425243600,2015,21,0,60.875,60.875,70.5496,-147.1966,1040.9,-14.2,-999.0,yes,yes,no,300234062555740,IceBall,USIABP,BeaCON,North
2015-03-01T22:00:28Z,1425247229,2015,22,0,60.917,60.917,70.5402,-147.1404,1041.7,-14.3,-999.0,yes,yes,no,300234062555740,IceBall,USIABP,BeaCON,North
2015-03-01T22:59:31Z,1425250771,2015,23,0,60.958,60.958,70.5312,-147.0872,1042.3,-14.2,-999.0,yes,yes,no,300234062555740,IceBall,USIABP,BeaCON,North
2015-03-02T00:00:00Z,1425254400,2015,0,0,61.0,61.0,70.5222,-147.0352,1042.1,-14.2,-999.0,yes,yes,no,300234062555740,IceBall,USIABP,BeaCON,North
2015-03-02T01:00:28Z,1425258029,2015,1,0,61.042,61.042,70.5134,-146.9874,1042.8,-14.1,-999.0,yes,yes,no,300234062555740,IceBall,USIABP,BeaCON,North
2015-03-02T01:59:31Z,1425261571,2015,2,0,61.083,61.083,70.505,-146.9426,1042.9,-14.0,-999.0,yes,yes,no,300234062555740,IceBall,USIABP,BeaCON,North
2015-03-02T03:00:00Z,1425265200,2015,3,0,61.125,61.125,70.4966,-146.903,1043.0,-14.2,-999.0,yes,yes,no,300234062555740,IceBall,USIABP,BeaCON,North
2015-03-02T04:00:28Z,1425268829,2015,4,0,61.167,61.167,70.489,-146.8688,1042.6,-14.5,-999.0,yes,yes,no,300234062555740,IceBall,USIABP,BeaCON,North
2015-03-02T04:59:31Z,1425272371,2015,5,0,61.208,61.208,70.4814,-146.8404,1042.5,-14.8,-999.0,yes,yes,no,300234062555740,IceBall,USIABP,BeaCON,North
2015-03-02T06:00:00Z,1425276000,2015,6,0,61.25,61.25,70.4744,-146.8186,1041.9,-15.0,-999.0,yes,yes,no,300234062555740,IceBall,USIABP,BeaCON,North
2015-03-02T07:00:28Z,1425279629,2015,7,0,61.292,61.292,70.4684,-146.8048,1041.3,-15.1,-999.0,yes,yes,no,300234062555740,IceBall,USIABP,BeaCON,North
2015-03-02T07:59:31Z,1425283171,2015,8,0,61.333,61.333,70.4644,-146.7978,1040.5,-15.6,-999.0,yes,yes,no,300234062555740,IceBall,USIABP,BeaCON,North
2015-03-02T09:00:00Z,1425286800,2015,9,0,61.375,61.375,70.462,-146.7942,1040.2,-15.6,-999.0,yes,yes,no,300234062555740,IceBall,USIABP,BeaCON,North
2015-03-02T10:00:28Z,1425290429,2015,10,0,61.417,61.417,70.4608,-146.7922,1039.7,-15.9,-999.0,yes,yes,no,300234062555740,IceBall,USIABP,BeaCON,North
2015-03-02T10:59:31Z,1425293971,2015,11,0,61.458,61.458,70.4604,-146.7922,1038.7,-15.8,-999.0,yes,yes,no,300234062555740,IceBall,USIABP,BeaCON,North
2015-03-02T12:00:00Z,1425297600,2015,12,0,61.5,61.5,70.4606,-146.7942,1037.1,-16.1,-999.0,yes,yes,no,300234062555740,IceBall,USIABP,BeaCON,North
2015-03-02T13:00:28Z,1425301229,2015,13,0,61.542,61.542,70.4608,-146.7992,1036.3,-15.8,-999.0,yes,yes,no,300234062555740,IceBall,USIABP,BeaCON,North
2015-03-02T13:59:31Z,1425304771,2015,14,0,61.583,61.583,70.4614,-146.806,1035.5,-15.8,-999.0,yes,yes,no,300234062555740,IceBall,USIABP,BeaCON,North
2015-03-02T15:00:00Z,1425308400,2015,15,0,61.625,61.625,70.4622,-146.8152,1034.6,-15.8,-999.0,yes,yes,no,300234062555740,IceBall,USIABP,BeaCON,North
2015-03-02T16:00:28Z,1425312029,2015,16,0,61.667,61.667,70.463,-146.8276,1033.2,-15.6,-999.0,yes,yes,no,300234062555740,IceBall,USIABP,BeaCON,North
2015-03-02T16:59:31Z,1425315571,2015,17,0,61.708,61.708,70.464,-146.8434,1032.2,-15.5,-999.0,yes,yes,no,300234062555740,IceBall,USIABP,BeaCON,North
2015-03-02T18:00:00Z,1425319200,2015,18,0,61.75,61.75,70.4658,-146.8624,1030.8,-15.4,-999.0,yes,yes,no,300234062555740,IceBall,USIABP,BeaCON,North
2015-03-02T19:00:28Z,1425322829,2015,19,0,61.792,61.792,70.4682,-146.8846,1030.0,-15.2,-999.0,yes,yes,no,300234062555740,IceBall,USIABP,BeaCON,North
2015-03-02T19:59:31Z,1425326371,2015,20,0,61.833,61.833,70.4712,-146.9098,1028.6,-15.0,-999.0,yes,yes,no,300234062555740,IceBall,USIABP,BeaCON,North
2015-03-02T21:00:00Z,1425330000,2015,21,0,61.875,61.875,70.4746,-146.9382,1028.0,-14.7,-999.0,yes,yes,no,300234062555740,IceBall,USIABP,BeaCON,North
2015-03-02T22:00:28Z,1425333629,2015,22,0,61.917,61.917,70.4786,-146.9684,1026.5,-14.4,-999.0,yes,yes,no,300234062555740,IceBall,USIABP,BeaCON,North
2015-03-02T22:59:31Z,1425337171,2015,23,0,61.958,61.958,70.483,-146.9998,1025.9,-14.3,-999.0,yes,yes,no,300234062555740,IceBall,USIABP,BeaCON,North
2015-03-03T00:00:00Z,1425340800,2015,0,0,62.0,62.0,70.4874,-147.0318,1025.6,-14.2,-999.0,yes,yes,no,300234062555740,IceBall,USIABP,BeaCON,North
2015-03-03T01:00:28Z,1425344429,2015,1,0,62.042,62.042,70.4918,-147.0656,1024.4,-14.2,-999.0,yes,yes,no,300234062555740,IceBall,USIABP,BeaCON,North
2015-03-03T01:59:31Z,1425347971,2015,2,0,62.083,62.083,70.4966,-147.0996,1023.7,-14.3,-999.0,yes,yes,no,300234062555740,IceBall,USIABP,BeaCON,North
2015-03-03T03:00:00Z,1425351600,2015,3,0,62.125,62.125,70.5018,-147.135,1022.5,-14.3,-999.0,yes,yes,no,300234062555740,IceBall,USIABP,BeaCON,North